Location: ?ejeti?ky
(50.4060°N, 14.9016°E)
Time: 13:28:19
(UTC+00:00)

STARLINK-1257 - Pass Details

Date: 07 June 2020
Orbit: 548 x 550 km, 53.0° (Epoch: 14 July)

Event Time Altitude Azimuth Distance (km) Brightness Sun altitude
Rises 01:36:19 0° 271° (W) 2,704 6.8 -9.0°
Reaches altitude 10° 01:38:34 10° 275° (W) 1,810 6.0 -8.8°
Maximum altitude 01:42:38 59° 356° (N) 628 4.2 -8.4°
Drops below altitude 10° 01:46:49 - 77° (ENE) 1,850 7.2 -8.0°
Sets 01:48:57 0° 81° (E) 2,697 8.0 -7.8°
